Time,TemperatureF,DewpointF,PressureIn,WindDirection,WindDirectionDegrees,WindSpeedMPH,WindSpeedGustMPH,Humidity,HourlyPrecipIn,Conditions,Clouds,dailyrainin,SoftwareType,DateUTC
2013-05-19 00:00:00,70.2,23.3,29.62,South,180,9.0,13.0,17,0.00,,,-99.99,WeatherLink 5.7,2013-05-19 06:00:00,
2013-05-19 00:05:00,70.0,23.1,29.62,South,180,8.0,12.0,17,0.00,,,-99.99,WeatherLink 5.7,2013-05-19 06:05:00,
2013-05-19 00:10:00,69.9,23.1,29.62,SSW,202,8.0,14.0,17,0.00,,,-99.99,WeatherLink 5.7,2013-05-19 06:10:00,
2013-05-19 00:15:00,69.4,22.7,29.62,SSW,202,6.0,11.0,17,0.00,,,-99.99,WeatherLink 5.7,2013-05-19 06:15:00,
2013-05-19 00:20:00,69.2,22.5,29.62,SSW,202,7.0,10.0,17,0.00,,,-99.99,WeatherLink 5.7,2013-05-19 06:20:00,
2013-05-19 00:25:00,68.8,23.5,29.62,South,180,6.0,9.0,18,0.00,,,-99.99,WeatherLink 5.7,2013-05-19 06:25:00,
2013-05-19 00:30:00,68.1,23.0,29.64,South,180,4.0,6.0,18,0.00,,,-99.99,WeatherLink 5.7,2013-05-19 06:30:00,
2013-05-19 00:35:00,67.4,22.4,29.64,South,180,3.0,5.0,18,0.00,,,-99.99,WeatherLink 5.7,2013-05-19 06:35:00,
2013-05-19 00:40:00,67.0,22.1,29.64,South,180,5.0,7.0,18,0.00,,,-99.99,WeatherLink 5.7,2013-05-19 06:40:00,
2013-05-19 00:45:00,66.6,21.7,29.64,SSW,202,5.0,6.0,18,0.00,,,-99.99,WeatherLink 5.7,2013-05-19 06:45:00,
2013-05-19 00:50:00,66.2,22.7,29.64,South,180,6.0,8.0,19,0.00,,,-99.99,WeatherLink 5.7,2013-05-19 06:50:00,
2013-05-19 00:55:00,66.2,22.7,29.64,South,180,7.0,10.0,19,0.00,,,-99.99,WeatherLink 5.7,2013-05-19 06:55:00,
2013-05-19 01:00:00,66.2,22.7,29.64,South,180,6.0,10.0,19,0.00,,,-99.99,WeatherLink 5.7,2013-05-19 07:00:00,
2013-05-19 01:05:00,66.1,22.6,29.63,South,180,5.0,8.0,19,0.00,,,-99.99,WeatherLink 5.7,2013-05-19 07:05:00,
2013-05-19 01:10:00,65.7,22.3,29.63,South,180,3.0,7.0,19,0.00,,,-99.99,WeatherLink 5.7,2013-05-19 07:10:00,
2013-05-19 01:15:00,65.4,22.0,29.63,South,180,3.0,5.0,19,0.00,,,-99.99,WeatherLink 5.7,2013-05-19 07:15:00,
2013-05-19 01:20:00,65.0,22.9,29.63,South,180,1.0,4.0,20,0.00,,,-99.99,WeatherLink 5.7,2013-05-19 07:20:00,
2013-05-19 01:25:00,64.7,22.7,29.63,South,180,0.0,3.0,20,0.00,,,-99.99,WeatherLink 5.7,2013-05-19 07:25:00,
2013-05-19 01:30:00,64.5,22.5,29.64,South,180,0.0,4.0,20,0.00,,,-99.99,WeatherLink 5.7,2013-05-19 07:30:00,
2013-05-19 01:35:00,64.7,22.7,29.63,SSW,202,2.0,7.0,20,0.00,,,-99.99,WeatherLink 5.7,2013-05-19 07:35:00,
2013-05-19 01:40:00,65.0,22.9,29.63,SSW,202,1.0,5.0,20,0.00,,,-99.99,WeatherLink 5.7,2013-05-19 07:40:00,
2013-05-19 01:45:00,64.9,22.8,29.63,SSW,202,2.0,4.0,20,0.00,,,-99.99,WeatherLink 5.7,2013-05-19 07:45:00,
2013-05-19 01:50:00,64.3,22.3,29.64,SSW,202,4.0,6.0,20,0.00,,,-99.99,WeatherLink 5.7,2013-05-19 07:50:00,
2013-05-19 01:55:00,64.1,22.2,29.64,SSW,202,5.0,6.0,20,0.00,,,-99.99,WeatherLink 5.7,2013-05-19 07:55:00,
2013-05-19 02:00:00,63.8,21.9,29.64,SSW,202,3.0,5.0,20,0.00,,,-99.99,WeatherLink 5.7,2013-05-19 08:00:00,
2013-05-19 02:05:00,63.8,21.9,29.65,SSW,202,3.0,5.0,20,0.00,,,-99.99,WeatherLink 5.7,2013-05-19 08:05:00,
2013-05-19 02:10:00,63.3,22.7,29.64,SSW,202,5.0,6.0,21,0.00,,,-99.99,WeatherLink 5.7,2013-05-19 08:10:00,
2013-05-19 02:15:00,62.8,22.2,29.64,SSW,202,3.0,5.0,21,0.00,,,-99.99,WeatherLink 5.7,2013-05-19 08:15:00,
2013-05-19 02:20:00,62.7,22.2,29.65,SSW,202,2.0,4.0,21,0.00,,,-99.99,WeatherLink 5.7,2013-05-19 08:20:00,
2013-05-19 02:25:00,62.6,22.1,29.65,SSW,202,1.0,4.0,21,0.00,,,-99.99,WeatherLink 5.7,2013-05-19 08:25:00,
2013-05-19 02:30:00,62.1,21.7,29.66,North,-999,0.0,0.0,21,0.00,,,-99.99,WeatherLink 5.7,2013-05-19 08:30:00,
2013-05-19 02:35:00,61.7,22.4,29.65,North,-999,0.0,0.0,22,0.00,,,-99.99,WeatherLink 5.7,2013-05-19 08:35:00,
2013-05-19 02:40:00,61.3,22.1,29.65,North,-999,0.0,0.0,22,0.00,,,-99.99,WeatherLink 5.7,2013-05-19 08:40:00,
2013-05-19 02:45:00,61.1,21.9,29.66,North,-999,0.0,0.0,22,0.00,,,-99.99,WeatherLink 5.7,2013-05-19 08:45:00,
2013-05-19 02:50:00,60.6,21.5,29.65,SSW,202,2.0,5.0,22,0.00,,,-99.99,WeatherLink 5.7,2013-05-19 08:50:00,
2013-05-19 02:55:00,60.0,21.0,29.66,SSW,202,2.0,4.0,22,0.00,,,-99.99,WeatherLink 5.7,2013-05-19 08:55:00,
2013-05-19 03:00:00,59.7,21.8,29.66,SSW,202,2.0,5.0,23,0.00,,,-99.99,WeatherLink 5.7,2013-05-19 09:00:00,
2013-05-19 03:05:00,59.7,21.8,29.66,SSW,202,4.0,5.0,23,0.00,,,-99.99,WeatherLink 5.7,2013-05-19 09:05:00,
2013-05-19 03:10:00,59.8,21.9,29.66,SSW,202,4.0,5.0,23,0.00,,,-99.99,WeatherLink 5.7,2013-05-19 09:10:00,